Location: Phoenix
(33.4480°N, 112.0730°W)
Time: 07:20:05
(UTC-07:00)

Daily predictions for brighter satellites

Satellite Brightness Start Highest point End
(mag) Time Altitude Azimuth Time Altitude Azimuth Time Altitude Azimuth
Meteor 1-5 Rocket 4.4 17:37:05 10° N 17:42:34 81° W 17:48:14 10° S
SPOT 3 Rocket 3.8 17:37:46 10° SSE 17:42:45 50° ENE 17:47:44 10° N
Cosmos 2082 Rocket 3.6 17:39:37 10° NNE 17:43:12 17° ENE 17:46:47 10° E
NOSS 3-3 (A) 4.1 17:37:42 10° SSW 17:43:48 83° WNW 17:50:21 10° NNE
NOSS 3-3 (C) 4.1 17:37:48 10° SSW 17:43:54 84° WNW 17:50:27 10° NNE
COSMOS 2487 4.1 17:43:01 10° NNE 17:45:13 15° ENE 17:47:24 10° ESE
MSX 4.4 17:40:16 10° SE 17:45:26 36° ENE 17:50:36 10° N
Cosmos 1484 Rocket 4.3 17:43:16 10° ESE 17:45:32 16° ENE 17:47:47 10° NNE
Cosmos 1500 4.3 17:44:15 10° NNE 17:47:23 23° ENE 17:50:31 10° SE
Tiangong 1 1.8 17:45:27 10° W 17:48:22 41° NNW 17:51:15 10° NE
Cosmos 494 Rocket 4.1 17:44:16 10° N 17:49:27 58° ENE 17:54:36 10° SSE
CZ-2C R/B 2.5 17:45:08 10° SSE 17:49:58 59° ENE 17:55:00 10° N
USA 32 4.3 17:46:10 10° S 17:51:22 77° W 17:56:36 10° N
SJ-12 3.9 17:48:12 10° SSE 17:52:14 66° ENE 17:56:19 10° N
MOS 1 4.3 17:48:33 10° SSE 17:54:10 70° ENE 17:59:47 10° N
ATLAS 2AS CENTAUR R/B 3.0 17:48:37 10° NNW 17:56:40 79° ENE 18:04:03 10° SE
Meteor 1-12 Rocket 4.4 17:51:04 10° N 17:56:51 61° E 18:02:41 10° SSE
Cosmos 1455 Rocket 3.0 17:57:17 10° N 18:01:43 82° E 18:06:09 10° S
SKYMED 2 4.1 18:01:34 10° NNE 18:05:37 38° E 18:09:40 10° SSE
Delta 2 Rocket 3.1 18:03:20 10° W 18:06:58 83° N 18:10:22 14° ENE
ASTRO F (AKARI) 4.1 18:04:31 10° NNE 18:07:39 75° ESE 18:10:49 10° S
IDEFIX/ARIANE 42P 2.6 18:02:33 10° SSE 18:07:45 87° ENE 18:12:57 10° NNW
AQUARIUS 4.2 18:03:45 10° SSE 18:08:15 88° WSW 18:12:45 10° NNW
Okean 1-7 Rocket 4.1 18:07:33 10° SSE 18:11:43 38° E 18:15:53 10° NNE
Cosmos 1812 4.1 18:10:58 10° SSW 18:14:36 41° W 18:18:16 10° N
Meteor 2-4 Rocket 4.4 18:11:39 10° SSE 18:16:14 29° E 18:20:46 10° NNE
KM-V1 3.6 18:18:14 10° WSW 18:20:30 42° S 18:21:25 23° ESE
Cosmos 1809 Rocket 4.4 18:19:24 10° N 18:25:32 69° E 18:31:36 10° SSE
OTV 4 3.5 18:30:35 10° WSW 18:32:07 13° SSW 18:33:38 10° S
NOSS 2-1 (D) 3.5 18:34:17 10° SW 18:38:04 67° WNW 18:40:54 18° NNE
Cosmos 1346 Rocket 3.9 18:34:47 10° SSW 18:38:31 45° W 18:42:16 10° N
NOSS 2-1 (C) 3.5 18:34:58 10° SW 18:38:45 69° WNW 18:41:33 19° NNE
Timation 1 Rocket 4.4 18:35:27 10° SSW 18:41:24 80° WNW 18:47:24 10° NNE
DMSP B5D1-3 4.4 18:39:06 10° NNE 18:44:15 80° ESE 18:49:22 10° S
Cosmos 2297 4.3 18:40:34 10° SW 18:46:06 57° WNW 18:51:39 10° NNE
NOSS 7 (E) 4.4 18:45:51 10° SSW 18:49:32 82° WNW 18:50:33 42° NNE
Cosmos 2239 Rocket 4.4 18:46:17 10° N 18:52:25 64° E 18:58:29 10° SSE
COSMO-SKYMED 1 3.3 18:49:26 10° N 18:53:39 53° WNW 18:57:51 10° SSW
NOAA 12 4.1 18:49:45 10° SSE 18:54:52 53° ENE 18:59:59 10° N
Timation 2 Rocket 4.1 18:50:18 10° NNW 18:57:12 82° ENE 19:04:04 10° SSE
NOSS 2-1 (E) 4.2 18:53:44 10° SW 18:57:26 45° NW 18:59:37 23° N
Cosmos 2278 Rocket 4.4 18:54:06 10° WSW 18:58:15 21° WNW 19:02:26 10° N
Okean 2 3.6 18:56:12 10° SSE 18:59:51 49° ESE 18:59:51 49° ESE
Cosmos 1821 Rocket 3.8 18:57:10 10° N 19:03:16 75° E 19:09:21 10° S
ATLAS 3B CENTAUR R/B 3.8 18:43:08 10° W 19:04:08 67° S 19:08:44 29° ESE
Genesis I 4.1 19:00:26 10° NW 19:04:13 49° WSW 19:07:58 10° S
Cosmos 2056 Rocket 3.5 19:05:06 10° SSW 19:10:30 90° WNW 19:13:05 32° NNE
Cosmos 1025 Rocket 3.3 19:06:12 10° SSW 19:10:31 66° W 19:13:23 21° N
METEOR-M 4.0 19:05:34 10° SSE 19:10:49 65° ENE 19:16:07 10° N
OAO 1 4.4 19:06:03 10° WNW 19:11:32 85° SSW 19:12:58 51° ESE
Cosmos 1605 Rocket 4.1 19:07:46 10° N 19:13:50 49° E 19:19:46 10° SSE
Cosmos 1743 4.0 19:15:01 10° NNW 19:18:40 41° W 19:22:16 10° SSW
Cosmos 1624 Rocket 4.4 19:18:50 10° SSW 19:23:56 60° WNW 19:26:24 30° N
Cosmos 1833 Rocket 2.7 19:19:02 10° NNW 19:24:40 76° WSW 19:30:15 10° SSE
Tiangong 1 4.1 19:23:10 10° NW 19:23:18 11° NW 19:23:18 11° NW
Cosmos 2082 Rocket 2.7 19:22:05 10° NNW 19:27:40 59° WSW 19:33:14 10° S
GEOS 3 Rocket 3.7 19:28:52 60° N 19:28:52 60° N 19:33:14 10° NNW
NOSS 3-4 (A) 3.8 19:25:30 10° NNW 19:32:30 57° ENE 19:32:41 57° ENE
NOSS 3-4 (C) 3.8 19:25:36 10° NNW 19:32:36 57° ENE 19:32:42 57° ENE
Meteor 1-15 Rocket 4.2 19:33:11 10° N 19:39:05 88° WSW 19:44:51 10° S
Cosmos 1727 Rocket 3.8 19:38:37 10° S 19:44:51 89° W 19:45:19 78° N
BREEZE M DEB (TANK) 4.4 19:41:02 10° NW 20:14:42 - ESE 19:46:07 52° NE
Cosmos 2369 Rocket 3.5 19:57:40 10° SSW 20:00:26 30° SSW 20:00:26 30° SSW
FALCON 9 R/B 2.9 19:48:11 10° W 20:04:45 83° NNW 20:04:45 83° NNW
